• In Italy
  • List of Countries
  • For 7 days
  • Water Temperature
  • Satellite Maps
  • Weather Map
  • Weather Widgets
  • user-avatar
    Login

    Hourly Weather La Rioja

    Today, 22 October, Sunday

    Time Temperature Precipitation Wind Pressure Humidity
    00:00 +20°C° 0 mm 2 mps 721 mmHg 34%
    01:00 +19°C° 0 mm 2 mps 721 mmHg 36%
    02:00 +18°C° 0 mm 2 mps 720 mmHg 39%
    03:00 +18°C° 0 mm 2 mps 720 mmHg 41%
    04:00 +17°C° 0 mm 2 mps 720 mmHg 43%
    05:00 +16°C° 0 mm 2 mps 719 mmHg 44%
    06:00 +18°C° 0 mm 2 mps 719 mmHg 41%
    07:00 +19°C° 0 mm 3 mps 719 mmHg 38%
    08:00 +20°C° 0 mm 3 mps 719 mmHg 34%
    09:00 +21°C° 0 mm 4 mps 719 mmHg 31%
    10:00 +23°C° 0 mm 4 mps 719 mmHg 28%
    11:00 +26°C° 0 mm 5 mps 718 mmHg 25%
    12:00 +27°C° 0 mm 5 mps 717 mmHg 23%
    13:00 +28°C° 0 mm 5 mps 716 mmHg 22%
    14:00 +29°C° 0 mm 6 mps 715 mmHg 20%
    15:00 +29°C° 0 mm 6 mps 715 mmHg 20%
    16:00 +29°C° 0 mm 6 mps 714 mmHg 21%
    17:00 +29°C° 0 mm 6 mps 713 mmHg 21%
    18:00 +27°C° 0 mm 5 mps 714 mmHg 24%
    19:00 +26°C° 0 mm 4 mps 714 mmHg 26%
    20:00 +23°C° 0 mm 4 mps 715 mmHg 29%
    21:00 +22°C° 0 mm 3 mps 715 mmHg 31%
    22:00 +21°C° 0 mm 3 mps 715 mmHg 33%
    23:00 +21°C° 0 mm 3 mps 716 mmHg 35%

    Tomorrow, 23 October, Monday

    Time Temperature Precipitation Wind Pressure Humidity
    00:00 +20°C° 0 mm 3 mps 715 mmHg 37%
    01:00 +19°C° 0 mm 3 mps 715 mmHg 39%
    02:00 +19°C° 0 mm 2 mps 715 mmHg 41%
    03:00 +18°C° 0 mm 2 mps 714 mmHg 42%
    04:00 +17°C° 0 mm 2 mps 714 mmHg 44%
    05:00 +17°C° 0 mm 2 mps 714 mmHg 45%
    06:00 +18°C° 0 mm 2 mps 714 mmHg 42%
    07:00 +19°C° 0 mm 2 mps 715 mmHg 38%
    08:00 +20°C° 0 mm 2 mps 715 mmHg 35%
    09:00 +23°C° 0 mm 2 mps 715 mmHg 31%
    10:00 +25°C° 0 mm 3 mps 714 mmHg 28%
    11:00 +27°C° 0 mm 3 mps 714 mmHg 24%
    12:00 +28°C° 0 mm 3 mps 713 mmHg 22%
    13:00 +29°C° 0 mm 4 mps 712 mmHg 21%
    14:00 +32°C° 0 mm 4 mps 711 mmHg 19%
    15:00 +32°C° 0 mm 4 mps 711 mmHg 19%
    16:00 +32°C° 0 mm 4 mps 710 mmHg 19%
    17:00 +32°C° 0 mm 4 mps 710 mmHg 19%
    18:00 +30°C° 0 mm 4 mps 710 mmHg 22%
    19:00 +28°C° 0 mm 4 mps 711 mmHg 25%
    20:00 +27°C° 0 mm 3 mps 711 mmHg 28%
    21:00 +26°C° 0 mm 3 mps 712 mmHg 31%
    22:00 +25°C° 0 mm 2 mps 712 mmHg 34%
    23:00 +24°C° 0 mm 2 mps 712 mmHg 38%

    Day after tomorrow, 24 October, Tuesday

    Time Temperature Precipitation Wind Pressure Humidity
    00:00 +23°C° 0 mm 2 mps 712 mmHg 39%
    01:00 +23°C° 0 mm 2 mps 711 mmHg 41%
    02:00 +21°C° 0 mm 2 mps 711 mmHg 43%
    03:00 +20°C° 0 mm 2 mps 711 mmHg 45%
    04:00 +20°C° 0 mm 2 mps 711 mmHg 47%
    05:00 +19°C° 0 mm 2 mps 711 mmHg 49%
    06:00 +20°C° 0 mm 2 mps 711 mmHg 44%
    07:00 +23°C° 0 mm 2 mps 712 mmHg 39%
    08:00 +24°C° 0 mm 3 mps 712 mmHg 35%
    09:00 +26°C° 0 mm 3 mps 712 mmHg 31%
    10:00 +28°C° 0 mm 3 mps 712 mmHg 27%
    11:00 +29°C° 0 mm 4 mps 712 mmHg 22%
    12:00 +30°C° 0 mm 4 mps 712 mmHg 21%
    13:00 +32°C° 0 mm 4 mps 711 mmHg 20%
    14:00 +34°C° 0 mm 4 mps 710 mmHg 18%
    15:00 +33°C° 0 mm 5 mps 710 mmHg 18%
    16:00 +33°C° 0 mm 5 mps 710 mmHg 18%
    17:00 +33°C° 0 mm 5 mps 710 mmHg 18%
    18:00 +32°C° 0 mm 4 mps 710 mmHg 20%
    19:00 +29°C° 0 mm 4 mps 711 mmHg 23%
    20:00 +28°C° 0 mm 3 mps 712 mmHg 25%
    21:00 +27°C° 0 mm 3 mps 712 mmHg 28%
    22:00 +27°C° 0 mm 3 mps 712 mmHg 30%
    23:00 +26°C° 0 mm 2 mps 713 mmHg 33%

    25 October, Wednesday

    Time Temperature Precipitation Wind Pressure Humidity
    00:00 +26°C° 0 mm 3 mps 712 mmHg 35%
    01:00 +25°C° 0 mm 3 mps 712 mmHg 38%
    02:00 +24°C° 0 mm 3 mps 712 mmHg 40%
    03:00 +22°C° 0 mm 3 mps 712 mmHg 43%
    04:00 +21°C° 0 mm 3 mps 712 mmHg 46%
    05:00 +21°C° 0 mm 3 mps 712 mmHg 49%
    06:00 +22°C° 0 mm 3 mps 712 mmHg 46%
    07:00 +24°C° 0 mm 3 mps 712 mmHg 44%
    08:00 +25°C° 0 mm 4 mps 712 mmHg 42%
    09:00 +26°C° 0 mm 4 mps 712 mmHg 39%
    10:00 +28°C° 0 mm 4 mps 712 mmHg 35%
    11:00 +29°C° 0 mm 5 mps 712 mmHg 32%
    12:00 +30°C° 0 mm 5 mps 711 mmHg 31%
    13:00 +32°C° 0 mm 6 mps 711 mmHg 30%
    14:00 +33°C° 0 mm 6 mps 710 mmHg 28%
    15:00 +33°C° 0 mm 6 mps 710 mmHg 30%
    16:00 +32°C° 0 mm 6 mps 710 mmHg 31%
    17:00 +32°C° 0 mm 6 mps 710 mmHg 32%
    18:00 +30°C° 0 mm 5 mps 711 mmHg 38%
    19:00 +28°C° 0 mm 4 mps 711 mmHg 44%
    20:00 +27°C° 0 mm 3 mps 712 mmHg 50%
    21:00 +26°C° 0 mm 2 mps 712 mmHg 53%
    22:00 +25°C° 0 mm 2 mps 712 mmHg 56%
    23:00 +25°C° 0 mm 1 mps 713 mmHg 59%

    26 October, Thursday

    Time Temperature Precipitation Wind Pressure Humidity
    00:00 +24°C° 0 mm 1 mps 712 mmHg 61%
    01:00 +24°C° 0 mm 1 mps 712 mmHg 63%
    02:00 +21°C° 0 mm 0 mps 712 mmHg 65%
    03:00 +23°C° 0 mm 1 mps 712 mmHg 66%
    04:00 +22°C° 0 mm 1 mps 712 mmHg 67%
    05:00 +22°C° 0 mm 1 mps 713 mmHg 68%
    06:00 +23°C° 0 mm 1 mps 713 mmHg 63%
    07:00 +25°C° 0 mm 1 mps 714 mmHg 58%
    08:00 +26°C° 0 mm 1 mps 714 mmHg 53%
    09:00 +27°C° 0 mm 2 mps 714 mmHg 47%
    10:00 +29°C° 0 mm 2 mps 714 mmHg 42%
    11:00 +30°C° 0 mm 2 mps 714 mmHg 36%
    12:00 +31°C° 0 mm 3 mps 713 mmHg 32%
    13:00 +33°C° 0 mm 3 mps 712 mmHg 29%
    14:00 +34°C° 0 mm 4 mps 711 mmHg 25%
    15:00 +34°C° 0 mm 4 mps 711 mmHg 25%
    16:00 +35°C° 0 mm 4 mps 711 mmHg 25%
    17:00 +35°C° 0 mm 5 mps 710 mmHg 25%
    18:00 +33°C° 0 mm 4 mps 711 mmHg 28%
    19:00 +32°C° 0 mm 4 mps 712 mmHg 30%
    20:00 +30°C° 0 mm 4 mps 712 mmHg 33%
    21:00 +29°C° 0 mm 3 mps 713 mmHg 35%
    22:00 +28°C° 0 mm 2 mps 713 mmHg 37%
    23:00 +27°C° 0 mm 2 mps 713 mmHg 39%

    27 October, Friday

    Time Temperature Precipitation Wind Pressure Humidity
    00:00 +26°C° 0 mm 2 mps 713 mmHg 42%
    01:00 +26°C° 0 mm 2 mps 712 mmHg 44%
    02:00 +25°C° 0 mm 2 mps 712 mmHg 46%
    03:00 +25°C° 0 mm 2 mps 712 mmHg 49%
    04:00 +24°C° 0 mm 1 mps 711 mmHg 51%
    05:00 +23°C° 0 mm 1 mps 711 mmHg 54%
    06:00 +25°C° 0 mm 2 mps 711 mmHg 51%
    07:00 +26°C° 0 mm 2 mps 711 mmHg 48%
    08:00 +27°C° 0 mm 2 mps 711 mmHg 44%
    09:00 +29°C° 0 mm 2 mps 711 mmHg 40%
    10:00 +31°C° 0 mm 3 mps 710 mmHg 35%
    11:00 +33°C° 0 mm 3 mps 710 mmHg 30%
    12:00 +34°C° 0 mm 4 mps 709 mmHg 28%
    13:00 +35°C° 0 mm 4 mps 708 mmHg 26%
    14:00 +36°C° 0 mm 5 mps 707 mmHg 24%
    15:00 +36°C° 0 mm 5 mps 706 mmHg 25%
    16:00 +36°C° 0 mm 6 mps 706 mmHg 26%
    17:00 +36°C° 0 mm 6 mps 705 mmHg 27%
    18:00 +34°C° 1.2 mm 6 mps 705 mmHg 32%
    19:00 +33°C° 1.2 mm 5 mps 706 mmHg 37%
    20:00 +30°C° 1.2 mm 4 mps 706 mmHg 43%
    21:00 +29°C° 0.3 mm 3 mps 706 mmHg 45%
    22:00 +29°C° 0.3 mm 3 mps 707 mmHg 48%
    23:00 +28°C° 0.3 mm 2 mps 707 mmHg 51%
    Show more